Regional Weather Roundup
Issued by NWS

Home | Current Version | Previous Version | Text Only | Print | Product List | Glossary On
Versions: 1 2 3 4 5 6 7 8 9 10 11 12 13 14 15 16 17 18 19 20 21 22 23 24 25 26 27 28 29 30 31 32 33 34 35 36 37 38 39 40 41 42 43 44 45 46 47 48 49 50
000
ASUS43 KLMK 070902
RWRKY
KENTUCKY REGIONAL WEATHER ROUNDUP
NATIONAL WEATHER SERVICE LOUISVILLE KY
500 AM EDT THU MAY 07 2015

NOTE "FAIR" INDICATES FEW OR NO CLOUDS BELOW 12,000 FEET
WITH NO SIGNIFICANT WEATHER AND/OR OBSTRUCTIONS TO VISIBILITY.

KYZ001>023-026-027-061>063-070>075-071000-
WESTERN AND SOUTH CENTRAL KENTUCKY

CITY           SKY/WX    TMP DP  RH WIND       PRES   REMARKS
PADUCAH        CLEAR     57  53  86 CALM      30.05S
HENDERSON      CLEAR     59  54  82 CALM      30.06F
OWENSBORO      CLEAR     63  60  90 CALM      30.08S
HOPKINSVILLE   CLEAR     62  59  89 E2        30.08R
BOWLING GREEN  CLEAR     62  57  83 CALM      30.09S
GLASGOW        NOT AVBL
$$

KYZ024-025-028>034-038-045-046-053-071000-
NORTH CENTRAL KENTUCKY

CITY           SKY/WX    TMP DP  RH WIND       PRES   REMARKS
LOUISVILLE/SDF PTCLDY    69  59  70 E3        30.08S
LOUISVILLE/LOU CLEAR     64  58  80 CALM      30.08F
FORT KNOX      CLEAR     59  56  88 N2        30.07S
$$

KYZ035>037-039>044-047>052-055>060-089>105-071000-
NORTHEAST KENTUCKY

CITY           SKY/WX    TMP DP  RH WIND       PRES   REMARKS
LEXINGTON      CLOUDY    62  56  80 CALM      30.10R
COVINGTON      PTCLDY    66  54  65 E5        30.11R
FRANKFORT      PTCLDY    59  55  87 CALM      30.09R
$$

KYZ054-064>069-076>088-106>120-071000-
SOUTHEAST KENTUCKY

CITY           SKY/WX    TMP DP  RH WIND       PRES   REMARKS
JACKSON        PTCLDY    66  54  65 SE3       30.12S
LONDON         CLEAR     58  53  84 CALM      30.12R
SOMERSET       NOT AVBL
MIDDLESBORO    MOCLDY    55  55  99 CALM      30.14S
MONTICELLO     MOSUNNY   58  58 100 CALM      30.14R
$$



USA.gov is the U.S. government's official web portal to all federal, state and local government web resources and services.